Location: Newark
(46.1500°N, 9.2833°E)
Time: 09:28:14
(UTC+00:00)

ISS - Visible Passes

Search period start: 20 July 2019 00:00
Search period end: 30 July 2019 00:00
Orbit: 409 x 418 km, 51.6° (Epoch: 20 July)

Date Brightness Start Highest point End Pass type
(mag) Time Alt. Az. Time Alt. Az. Time Alt. Az.
20 Jul -4.0 01:05:21 10° WNW 01:08:41 86° SSW 01:11:59 10° ESE visible
20 Jul -1.9 02:45:52 13° SSW 02:45:52 13° SSW 02:46:48 10° S visible
20 Jul -2.5 21:01:53 10° W 21:05:06 43° NNW 21:08:18 10° ENE visible
20 Jul -1.9 22:39:15 10° WNW 22:42:17 30° N 22:45:17 10° ENE visible
21 Jul -2.3 00:16:02 10° WNW 00:18:01 32° NW 00:18:01 32° NW visible
21 Jul -3.1 20:12:24 10° WSW 20:15:42 57° NNW 20:19:00 10° ENE visible
21 Jul -1.8 21:49:47 10° WNW 21:52:48 30° N 21:55:49 10° ENE visible
21 Jul -2.5 23:26:43 10° WNW 23:29:24 41° NNW 23:29:24 41° NNW visible
22 Jul -1.9 21:00:16 10° WNW 21:03:20 32° N 21:06:23 10° ENE visible
22 Jul -2.3 22:37:23 10° WNW 22:40:32 37° NNE 22:41:11 33° NE visible
23 Jul -2.2 20:10:42 10° W 20:13:51 37° NNW 20:16:59 10° ENE visible
23 Jul -2.1 21:48:00 10° WNW 21:51:03 32° N 21:53:06 17° ENE visible
23 Jul -1.6 23:24:42 10° WNW 23:25:54 21° WNW 23:25:54 21° WNW visible
24 Jul -1.9 20:58:32 10° WNW 21:01:33 30° N 21:04:35 10° ENE visible
24 Jul -2.7 22:35:21 10° WNW 22:37:56 45° NNW 22:37:56 45° NNW visible
25 Jul -1.9 20:09:01 10° WNW 20:12:02 30° N 20:15:04 10° ENE visible
25 Jul -2.7 21:45:59 10° WNW 21:49:13 43° NNE 21:50:01 36° NE visible
25 Jul -0.8 23:22:43 10° WNW 23:22:49 11° WNW 23:22:49 11° WNW visible
26 Jul -2.3 20:56:36 10° WNW 20:59:44 35° NNE 21:02:07 15° ENE visible
26 Jul -2.0 22:33:16 10° WNW 22:34:56 26° WNW 22:34:56 26° WNW visible
27 Jul -2.1 20:07:09 10° WNW 20:10:12 32° N 20:13:15 10° ENE visible
27 Jul -3.7 21:43:53 10° WNW 21:47:04 74° N 21:47:04 74° N visible
28 Jul -3.2 20:54:29 10° WNW 20:57:47 53° NNE 20:59:14 28° E visible
28 Jul -1.2 22:31:22 10° WNW 22:32:03 14° W 22:32:03 14° W visible
29 Jul -2.7 20:05:05 10° WNW 20:08:17 41° NNE 20:11:26 10° E visible
29 Jul -2.8 21:41:47 10° WNW 21:44:15 39° W 21:44:15 39° W visible
